Location: Ariel
(45.9570°N, 122.5700°W)
Time: 21:27:13
(UTC-07:00)

Tiros 1 - Pass Details

Date: 22 July 2019
Orbit: 630 x 664 km, 48.4° (Epoch: 21 August)

Event Time Altitude Azimuth Distance (km) Brightness Sun altitude
Rises 17:33:11 0° 289° (WNW) 2,999 11.5 32.2°
Reaches altitude 10° 17:35:33 10° 287° (WNW) 2,083 11.0 31.8°
Maximum altitude 17:40:21 75° 203° (SSW) 686 7.9 31.0°
Drops below altitude 10° 17:45:07 10° 119° (ESE) 2,065 9.4 30.1°
Sets 17:47:27 0° 117° (ESE) 2,970 10.1 29.7°
